When you browse on this site, cookies collect data to enhance your experience and personalize the content and advertising you see.
Visit our Privacy Policy to learn more. By continuing to use the site, you agree to this use of cookies and data.
  • In Hungary
  • List of Countries
  • For 7 days
  • Water Temperature
  • Satellite Maps
  • Weather Map
  • News
  • Weather Widgets
  • user-avatar
    Login

    Hourly Weather Khachrod

    Today, 20 March, Wednesday

    Time Temperature Precipitation Wind Pressure Humidity
    00:00 +28°C° 0 mm 2 mps 715 mmHg 19%
    01:00 +27°C° 0 mm 2 mps 714 mmHg 21%
    02:00 +26°C° 0 mm 2 mps 714 mmHg 22%
    03:00 +26°C° 0 mm 2 mps 714 mmHg 24%
    04:00 +25°C° 0 mm 2 mps 714 mmHg 25%
    05:00 +25°C° 0 mm 1 mps 714 mmHg 26%
    06:00 +26°C° 0 mm 1 mps 714 mmHg 25%
    07:00 +28°C° 0 mm 1 mps 715 mmHg 23%
    08:00 +29°C° 0 mm 1 mps 716 mmHg 22%
    09:00 +31°C° 0 mm 2 mps 716 mmHg 20%
    10:00 +34°C° 0 mm 3 mps 716 mmHg 18%
    11:00 +35°C° 0 mm 3 mps 717 mmHg 16%
    12:00 +36°C° 0 mm 4 mps 716 mmHg 15%
    13:00 +37°C° 0 mm 5 mps 716 mmHg 14%
    14:00 +39°C° 0 mm 6 mps 715 mmHg 12%
    15:00 +38°C° 0 mm 6 mps 715 mmHg 13%
    16:00 +38°C° 0 mm 6 mps 715 mmHg 13%
    17:00 +36°C° 0 mm 6 mps 714 mmHg 13%
    18:00 +35°C° 0 mm 5 mps 714 mmHg 16%
    19:00 +33°C° 0 mm 4 mps 715 mmHg 18%
    20:00 +31°C° 0 mm 3 mps 715 mmHg 20%
    21:00 +30°C° 0 mm 3 mps 715 mmHg 21%
    22:00 +29°C° 0 mm 4 mps 715 mmHg 23%
    23:00 +28°C° 0 mm 4 mps 716 mmHg 24%

    Tomorrow, 21 March, Thursday

    Time Temperature Precipitation Wind Pressure Humidity
    00:00 +27°C° 0 mm 4 mps 715 mmHg 26%
    01:00 +26°C° 0 mm 3 mps 715 mmHg 27%
    02:00 +25°C° 0 mm 3 mps 715 mmHg 29%
    03:00 +25°C° 0 mm 2 mps 715 mmHg 30%
    04:00 +24°C° 0 mm 2 mps 715 mmHg 31%
    05:00 +24°C° 0 mm 2 mps 715 mmHg 32%
    06:00 +25°C° 0 mm 1 mps 716 mmHg 29%
    07:00 +26°C° 0 mm 1 mps 716 mmHg 27%
    08:00 +27°C° 0 mm 1 mps 717 mmHg 24%
    09:00 +29°C° 0 mm 2 mps 718 mmHg 21%
    10:00 +31°C° 0 mm 2 mps 718 mmHg 18%
    11:00 +32°C° 0 mm 2 mps 718 mmHg 15%
    12:00 +34°C° 0 mm 3 mps 717 mmHg 13%
    13:00 +35°C° 0 mm 3 mps 717 mmHg 11%
    14:00 +36°C° 0 mm 4 mps 716 mmHg 9%
    15:00 +36°C° 0 mm 4 mps 716 mmHg 8%
    16:00 +36°C° 0 mm 5 mps 715 mmHg 8%
    17:00 +35°C° 0 mm 5 mps 715 mmHg 7%
    18:00 +34°C° 0 mm 4 mps 715 mmHg 8%
    19:00 +32°C° 0 mm 4 mps 716 mmHg 9%
    20:00 +29°C° 0 mm 3 mps 716 mmHg 9%
    21:00 +29°C° 0 mm 3 mps 716 mmHg 10%
    22:00 +28°C° 0 mm 2 mps 716 mmHg 11%
    23:00 +27°C° 0 mm 2 mps 717 mmHg 11%

    Day after tomorrow, 22 March, Friday

    Time Temperature Precipitation Wind Pressure Humidity
    00:00 +27°C° 0 mm 2 mps 716 mmHg 13%
    01:00 +26°C° 0 mm 2 mps 716 mmHg 14%
    02:00 +25°C° 0 mm 2 mps 716 mmHg 15%
    03:00 +25°C° 0 mm 3 mps 716 mmHg 17%
    04:00 +24°C° 0 mm 3 mps 716 mmHg 19%
    05:00 +23°C° 0 mm 4 mps 716 mmHg 21%
    06:00 +25°C° 0 mm 5 mps 717 mmHg 20%
    07:00 +26°C° 0 mm 5 mps 718 mmHg 19%
    08:00 +27°C° 0 mm 6 mps 719 mmHg 18%
    09:00 +29°C° 0 mm 6 mps 719 mmHg 16%
    10:00 +32°C° 0 mm 5 mps 719 mmHg 15%
    11:00 +34°C° 0 mm 5 mps 720 mmHg 13%
    12:00 +35°C° 0 mm 4 mps 719 mmHg 12%
    13:00 +35°C° 0 mm 4 mps 718 mmHg 11%
    14:00 +36°C° 0 mm 4 mps 717 mmHg 10%
    15:00 +36°C° 0 mm 4 mps 717 mmHg 10%
    16:00 +35°C° 0 mm 4 mps 716 mmHg 10%
    17:00 +35°C° 0 mm 4 mps 716 mmHg 10%
    18:00 +34°C° 0 mm 4 mps 716 mmHg 12%
    19:00 +31°C° 0 mm 3 mps 717 mmHg 13%
    20:00 +29°C° 0 mm 3 mps 717 mmHg 14%
    21:00 +29°C° 0 mm 3 mps 717 mmHg 14%
    22:00 +28°C° 0 mm 3 mps 717 mmHg 14%
    23:00 +27°C° 0 mm 4 mps 718 mmHg 14%

    23 March, Saturday

    Time Temperature Precipitation Wind Pressure Humidity
    00:00 +27°C° 0 mm 3 mps 717 mmHg 15%
    01:00 +26°C° 0 mm 3 mps 717 mmHg 16%
    02:00 +25°C° 0 mm 3 mps 716 mmHg 16%
    03:00 +25°C° 0 mm 3 mps 716 mmHg 17%
    04:00 +24°C° 0 mm 3 mps 716 mmHg 18%
    05:00 +24°C° 0 mm 3 mps 717 mmHg 19%
    06:00 +25°C° 0 mm 4 mps 717 mmHg 18%
    07:00 +26°C° 0 mm 5 mps 718 mmHg 17%
    08:00 +27°C° 0 mm 5 mps 719 mmHg 16%
    09:00 +30°C° 0 mm 5 mps 719 mmHg 14%
    10:00 +33°C° 0 mm 4 mps 719 mmHg 12%
    11:00 +35°C° 0 mm 4 mps 720 mmHg 11%
    12:00 +36°C° 0 mm 4 mps 719 mmHg 10%
    13:00 +36°C° 0 mm 3 mps 718 mmHg 9%
    14:00 +37°C° 0 mm 3 mps 717 mmHg 9%
    15:00 +37°C° 0 mm 3 mps 717 mmHg 9%
    16:00 +37°C° 0 mm 3 mps 716 mmHg 9%
    17:00 +36°C° 0 mm 3 mps 716 mmHg 9%
    18:00 +35°C° 0 mm 3 mps 716 mmHg 10%
    19:00 +33°C° 0 mm 3 mps 717 mmHg 11%
    20:00 +30°C° 0 mm 3 mps 717 mmHg 12%
    21:00 +30°C° 0 mm 3 mps 717 mmHg 12%
    22:00 +29°C° 0 mm 3 mps 717 mmHg 13%
    23:00 +28°C° 0 mm 3 mps 717 mmHg 14%

    24 March, Sunday

    Time Temperature Precipitation Wind Pressure Humidity
    00:00 +28°C° 0 mm 3 mps 717 mmHg 14%
    01:00 +27°C° 0 mm 2 mps 716 mmHg 15%
    02:00 +26°C° 0 mm 2 mps 715 mmHg 16%
    03:00 +26°C° 0 mm 2 mps 715 mmHg 16%
    04:00 +25°C° 0 mm 2 mps 715 mmHg 17%
    05:00 +25°C° 0 mm 2 mps 715 mmHg 17%
    06:00 +26°C° 0 mm 3 mps 716 mmHg 16%
    07:00 +27°C° 0 mm 3 mps 717 mmHg 16%
    08:00 +29°C° 0 mm 4 mps 718 mmHg 15%
    09:00 +32°C° 0 mm 4 mps 718 mmHg 13%
    10:00 +34°C° 0 mm 4 mps 718 mmHg 12%
    11:00 +36°C° 0 mm 3 mps 718 mmHg 10%
    12:00 +37°C° 0 mm 2 mps 718 mmHg 9%
    13:00 +37°C° 0 mm 1 mps 717 mmHg 9%
    14:00 +36°C° 0 mm 0 mps 716 mmHg 8%
    15:00 +39°C° 0 mm 1 mps 716 mmHg 8%
    16:00 +39°C° 0 mm 1 mps 715 mmHg 8%
    17:00 +38°C° 0 mm 2 mps 715 mmHg 8%
    18:00 +37°C° 0 mm 2 mps 715 mmHg 9%
    19:00 +34°C° 0 mm 1 mps 716 mmHg 10%
    20:00 +33°C° 0 mm 1 mps 716 mmHg 11%
    21:00 +32°C° 0 mm 1 mps 716 mmHg 11%
    22:00 +31°C° 0 mm 1 mps 716 mmHg 12%
    23:00 +30°C° 0 mm 1 mps 716 mmHg 13%

    25 March, Monday

    Time Temperature Precipitation Wind Pressure Humidity
    00:00 +30°C° 0 mm 2 mps 716 mmHg 14%
    01:00 +29°C° 0 mm 2 mps 715 mmHg 15%
    02:00 +28°C° 0 mm 2 mps 715 mmHg 15%
    03:00 +28°C° 0 mm 2 mps 715 mmHg 16%
    04:00 +27°C° 0 mm 2 mps 715 mmHg 17%
    05:00 +27°C° 0 mm 2 mps 715 mmHg 18%
    06:00 +28°C° 0 mm 3 mps 716 mmHg 17%
    07:00 +30°C° 0 mm 3 mps 717 mmHg 16%
    08:00 +31°C° 0 mm 3 mps 718 mmHg 15%
    09:00 +34°C° 0 mm 2 mps 718 mmHg 13%
    10:00 +36°C° 0 mm 1 mps 718 mmHg 11%
    11:00 +39°C° 0 mm 1 mps 718 mmHg 9%
    12:00 +40°C° 0 mm 2 mps 718 mmHg 9%
    13:00 +40°C° 0 mm 2 mps 717 mmHg 8%
    14:00 +42°C° 0 mm 3 mps 716 mmHg 8%
    15:00 +42°C° 0 mm 4 mps 716 mmHg 8%
    16:00 +41°C° 0 mm 4 mps 716 mmHg 8%
    17:00 +41°C° 0 mm 4 mps 716 mmHg 8%
    18:00 +40°C° 0 mm 4 mps 716 mmHg 9%
    19:00 +37°C° 0 mm 3 mps 717 mmHg 11%
    20:00 +35°C° 0 mm 3 mps 717 mmHg 12%
    21:00 +34°C° 0 mm 3 mps 717 mmHg 13%
    22:00 +34°C° 0 mm 3 mps 717 mmHg 13%
    23:00 +33°C° 0 mm 3 mps 717 mmHg 14%
    Show more